When you browse on this site, cookies collect data to enhance your experience and personalize the content and advertising you see.
Visit our Privacy Policy to learn more. By continuing to use the site, you agree to this use of cookies and data.
  • In Hungary
  • List of Countries
  • For 7 days
  • Water Temperature
  • Weather Map
  • News
  • Weather Widgets
  • user-avatar
    Login

    Hourly Weather Santa Rita

    Today, 22 November, Friday

    Time Temperature Precipitation Wind Pressure Humidity
    00:00 +26°C° 0 mm 1 mps 747 mmHg 89%
    01:00 +26°C° 0 mm 1 mps 746 mmHg 89%
    02:00 +26°C° 0 mm 1 mps 746 mmHg 90%
    03:00 +25°C° 0 mm 2 mps 746 mmHg 92%
    04:00 +25°C° 0 mm 2 mps 746 mmHg 93%
    05:00 +26°C° 0 mm 2 mps 747 mmHg 91%
    06:00 +26°C° 0 mm 3 mps 747 mmHg 89%
    07:00 +27°C° 0 mm 3 mps 748 mmHg 87%
    08:00 +28°C° 1 mm 3 mps 748 mmHg 85%
    09:00 +29°C° 1 mm 4 mps 748 mmHg 82%
    10:00 +30°C° 1 mm 4 mps 748 mmHg 79%
    11:00 +30°C° 3.6 mm 4 mps 747 mmHg 80%
    12:00 +30°C° 3.6 mm 4 mps 746 mmHg 80%
    13:00 +31°C° 3.6 mm 3 mps 746 mmHg 80%
    14:00 +30°C° 1 mm 3 mps 745 mmHg 81%
    15:00 +30°C° 1 mm 2 mps 745 mmHg 83%
    16:00 +30°C° 1 mm 2 mps 745 mmHg 84%
    17:00 +29°C° 0.1 mm 1 mps 745 mmHg 85%
    18:00 +28°C° 0.1 mm 1 mps 746 mmHg 87%
    19:00 +27°C° 0.1 mm 1 mps 746 mmHg 88%
    20:00 +25°C° 0.3 mm 0 mps 746 mmHg 89%
    21:00 +25°C° 0.3 mm 0 mps 747 mmHg 89%
    22:00 +25°C° 0.3 mm 0 mps 747 mmHg 89%
    23:00 +24°C° 0.6 mm 0 mps 747 mmHg 90%

    Tomorrow, 23 November, Saturday

    Time Temperature Precipitation Wind Pressure Humidity
    00:00 +26°C° 0.6 mm 1 mps 747 mmHg 91%
    01:00 +26°C° 0.6 mm 1 mps 746 mmHg 92%
    02:00 +26°C° 1.1 mm 1 mps 746 mmHg 93%
    03:00 +25°C° 1.1 mm 1 mps 746 mmHg 94%
    04:00 +25°C° 1.1 mm 1 mps 746 mmHg 96%
    05:00 +26°C° 0.3 mm 1 mps 747 mmHg 95%
    06:00 +26°C° 0.3 mm 1 mps 747 mmHg 94%
    07:00 +26°C° 0.3 mm 2 mps 748 mmHg 93%
    08:00 +28°C° 0 mm 2 mps 748 mmHg 86%
    09:00 +29°C° 0 mm 2 mps 748 mmHg 79%
    10:00 +31°C° 0 mm 2 mps 748 mmHg 72%
    11:00 +31°C° 0 mm 2 mps 747 mmHg 69%
    12:00 +32°C° 0 mm 2 mps 746 mmHg 66%
    13:00 +34°C° 0 mm 2 mps 745 mmHg 63%
    14:00 +34°C° 0 mm 2 mps 745 mmHg 64%
    15:00 +33°C° 0 mm 1 mps 745 mmHg 66%
    16:00 +32°C° 0 mm 1 mps 744 mmHg 68%
    17:00 +31°C° 0.4 mm 1 mps 745 mmHg 72%
    18:00 +30°C° 0.4 mm 1 mps 745 mmHg 77%
    19:00 +28°C° 0.4 mm 1 mps 746 mmHg 81%
    20:00 +28°C° 3.1 mm 2 mps 746 mmHg 84%
    21:00 +27°C° 3.1 mm 2 mps 747 mmHg 86%
    22:00 +27°C° 3.1 mm 2 mps 747 mmHg 89%
    23:00 +27°C° 0.3 mm 2 mps 747 mmHg 90%

    Day after tomorrow, 24 November, Sunday

    Time Temperature Precipitation Wind Pressure Humidity
    00:00 +27°C° 0.3 mm 2 mps 746 mmHg 91%
    01:00 +26°C° 0.3 mm 2 mps 746 mmHg 92%
    02:00 +26°C° 0 mm 2 mps 746 mmHg 93%
    03:00 +26°C° 0 mm 2 mps 746 mmHg 94%
    04:00 +26°C° 0 mm 2 mps 746 mmHg 95%
    05:00 +26°C° 0 mm 2 mps 746 mmHg 93%
    06:00 +27°C° 0 mm 3 mps 747 mmHg 92%
    07:00 +27°C° 0 mm 3 mps 747 mmHg 91%
    08:00 +29°C° 0.2 mm 3 mps 748 mmHg 85%
    09:00 +30°C° 0.2 mm 3 mps 748 mmHg 80%
    10:00 +33°C° 0.2 mm 3 mps 748 mmHg 75%
    11:00 +33°C° 0.6 mm 3 mps 747 mmHg 72%
    12:00 +34°C° 0.6 mm 2 mps 746 mmHg 70%
    13:00 +34°C° 0.6 mm 2 mps 745 mmHg 68%
    14:00 +33°C° 1.5 mm 1 mps 744 mmHg 71%
    15:00 +32°C° 1.5 mm 1 mps 744 mmHg 75%
    16:00 +29°C° 1.5 mm 0 mps 744 mmHg 79%
    17:00 +30°C° 2.5 mm 1 mps 744 mmHg 82%
    18:00 +29°C° 2.5 mm 1 mps 745 mmHg 84%
    19:00 +28°C° 2.5 mm 2 mps 746 mmHg 87%
    20:00 +28°C° 1.1 mm 2 mps 746 mmHg 88%
    21:00 +27°C° 1.1 mm 2 mps 746 mmHg 89%
    22:00 +27°C° 1.1 mm 3 mps 747 mmHg 90%
    23:00 +27°C° 0.3 mm 3 mps 746 mmHg 91%

    25 November, Monday

    Time Temperature Precipitation Wind Pressure Humidity
    00:00 +27°C° 0.3 mm 2 mps 746 mmHg 93%
    01:00 +26°C° 0.3 mm 2 mps 746 mmHg 94%
    02:00 +26°C° 0.2 mm 2 mps 746 mmHg 94%
    03:00 +26°C° 0.2 mm 2 mps 746 mmHg 94%
    04:00 +26°C° 0.2 mm 1 mps 745 mmHg 94%
    05:00 +26°C° 2.3 mm 2 mps 746 mmHg 94%
    06:00 +26°C° 2.3 mm 2 mps 747 mmHg 95%
    07:00 +26°C° 2.3 mm 3 mps 747 mmHg 95%
    08:00 +26°C° 0.9 mm 2 mps 747 mmHg 95%
    09:00 +26°C° 0.9 mm 2 mps 748 mmHg 94%
    10:00 +26°C° 0.9 mm 1 mps 748 mmHg 94%
    11:00 +27°C° 0 mm 1 mps 747 mmHg 89%
    12:00 +28°C° 0 mm 1 mps 746 mmHg 85%
    13:00 +29°C° 0 mm 1 mps 745 mmHg 80%
    14:00 +29°C° 0 mm 1 mps 744 mmHg 80%
    15:00 +29°C° 0 mm 1 mps 744 mmHg 79%
    16:00 +29°C° 0 mm 1 mps 744 mmHg 79%
    17:00 +28°C° 0 mm 1 mps 744 mmHg 81%
    18:00 +28°C° 0 mm 1 mps 745 mmHg 83%
    19:00 +25°C° 0 mm 0 mps 745 mmHg 85%
    20:00 +25°C° 0.2 mm 0 mps 746 mmHg 85%
    21:00 +25°C° 0.2 mm 0 mps 746 mmHg 86%
    22:00 +24°C° 0.2 mm 0 mps 746 mmHg 86%
    23:00 +24°C° 0.1 mm 0 mps 746 mmHg 88%

    26 November, Tuesday

    Time Temperature Precipitation Wind Pressure Humidity
    00:00 +24°C° 0.1 mm 0 mps 745 mmHg 89%
    01:00 +24°C° 0.1 mm 0 mps 745 mmHg 90%
    02:00 +23°C° 0.4 mm 0 mps 745 mmHg 91%
    03:00 +23°C° 0.4 mm 0 mps 745 mmHg 92%
    04:00 +23°C° 0.4 mm 0 mps 745 mmHg 94%
    05:00 +24°C° 0.2 mm 0 mps 746 mmHg 92%
    06:00 +26°C° 0.2 mm 1 mps 747 mmHg 91%
    07:00 +27°C° 0.2 mm 1 mps 747 mmHg 90%
    08:00 +28°C° 0 mm 1 mps 747 mmHg 85%
    09:00 +30°C° 0 mm 2 mps 748 mmHg 81%
    10:00 +31°C° 0 mm 2 mps 748 mmHg 76%
    11:00 +31°C° 0.1 mm 2 mps 747 mmHg 73%
    12:00 +32°C° 0.1 mm 2 mps 746 mmHg 71%
    13:00 +34°C° 0.1 mm 3 mps 745 mmHg 68%
    14:00 +32°C° 0 mm 2 mps 745 mmHg 70%
    15:00 +32°C° 0 mm 2 mps 744 mmHg 72%
    16:00 +32°C° 0 mm 2 mps 744 mmHg 73%
    17:00 +31°C° 0.9 mm 2 mps 745 mmHg 77%
    18:00 +29°C° 0.9 mm 2 mps 745 mmHg 81%
    19:00 +28°C° 0.9 mm 1 mps 745 mmHg 85%
    20:00 +28°C° 0.2 mm 2 mps 746 mmHg 86%
    21:00 +28°C° 0.2 mm 2 mps 746 mmHg 87%
    22:00 +27°C° 0.2 mm 2 mps 746 mmHg 88%
    23:00 +27°C° 0 mm 2 mps 746 mmHg 89%

    27 November, Wednesday

    Time Temperature Precipitation Wind Pressure Humidity
    00:00 +27°C° 0 mm 2 mps 746 mmHg 90%
    01:00 +27°C° 0 mm 2 mps 745 mmHg 91%
    02:00 +27°C° 0 mm 2 mps 745 mmHg 91%
    03:00 +27°C° 0 mm 3 mps 745 mmHg 92%
    04:00 +27°C° 0 mm 3 mps 745 mmHg 92%
    05:00 +27°C° 0 mm 3 mps 746 mmHg 91%
    06:00 +27°C° 0 mm 3 mps 746 mmHg 90%
    07:00 +27°C° 0 mm 3 mps 747 mmHg 89%
    08:00 +29°C° 0 mm 3 mps 747 mmHg 83%
    09:00 +31°C° 0 mm 2 mps 747 mmHg 76%
    10:00 +32°C° 0 mm 2 mps 748 mmHg 70%
    11:00 +34°C° 0 mm 2 mps 747 mmHg 67%
    12:00 +35°C° 0 mm 2 mps 746 mmHg 63%
    13:00 +36°C° 0 mm 2 mps 745 mmHg 60%
    14:00 +34°C° 1.9 mm 2 mps 745 mmHg 67%
    15:00 +32°C° 1.9 mm 2 mps 744 mmHg 75%
    16:00 +31°C° 1.9 mm 2 mps 744 mmHg 82%
    17:00 +30°C° 1.4 mm 3 mps 745 mmHg 84%
    18:00 +29°C° 1.4 mm 3 mps 745 mmHg 86%
    19:00 +28°C° 1.4 mm 3 mps 746 mmHg 87%
    20:00 +28°C° 0.1 mm 3 mps 746 mmHg 88%
    21:00 +28°C° 0.1 mm 3 mps 746 mmHg 89%
    22:00 +27°C° 0.1 mm 2 mps 747 mmHg 90%
    23:00 +27°C° 0 mm 2 mps 746 mmHg 90%
    Show more